SCP
0 0 0 0 0 0 0 0 0 0 0 0 0 0 0 0 0 0 -0 -0 -0 -0 -0 -0 0 0 0 0 0 0 0 0 0 0 -0 -0 -0 -0 0 0 0 0 -0 -0 -0 0 -0
0 0 0 0 0 0 0 0 0 0 0 0 0 0 0 0 0 0 0 0 -0 -0 -0 0 0 -0 0 0 0 0 0 0 0 0 0 0 0 0 0 0 0 -0 -0 -0 0 -0 -0
0 0 0 0 0 0 0 0 0 0 0 0 0 0 0 -0 -0 -0 -0 -0 0 -0 0 0 -0 0 0 0 0 0 0 -0 0 0 0 0 0 0 0 -0 -0 -0 -0 -0 -0 -0 -0
0 0 0 0 0 0 0 0 0 0 0 0 0 0 0 0 -0 -0 -0 -0 -0 0 0 0 -0 0 0 0 0 0 0 0 0 0 0 0 0 0 0 0 -0 -0 -0 -0 -0 -0 0
0 0 0 0 0 0 0 0 0 0 0 0 0 0 0 0 -0 -0 -0 -0 -0 -0 -0 -0 0 0 0 0 0 0 0 0 0 0 0 0 0 0 0 -0 -0 -0 0 0 -0 -0 -0
0 0 0 0 0 0 0 0 0 0 0 0 0 0 0 0 -0 -0 -0 -0 0 -0 -0 0 0 0 0 0 0 0 0 0 0 0 0 0 0 0 0 -0 -0 -0 -0 -0 0 -0 0
0 0 0 0 0 0 0 0 0 0 0 0 0 0 0 0 -0 -0 0 0 0 -0 0 0 0 0 0 0 0 0 0 0 0 0 0 0 0 -0 -0 0 -0 0 0 0 0 0 0
0 0 0 0 0 0 0 0 0 0 0 0 0 0 0 0 -0 -0 0 0 0 0 0 0 0 0 0 0 0 0 0 0 0 0 -0 0 0 -0 0 0 0 0 0 -0 0 0 0
0 0 0 0 0 0 0 0 0 0 0 0 0 0 0 0 -0 0 0 0 0 0 0 0 0 0 0 0 0 0 0 -0 0 0 0 0 -0 0 -0 -0 -0 -0 0 0 0 0 0
0 0 0 0 0 0 0 0 0 0 0 0 0 0 0 0 0 0 0 0 0 0 0 0 0 0 0 -0 0 0 0 0 0 0 0 0 0 0 0 -0 -0 -0 -0 0 0 0 0
0 0 0 0 0 0 0 0 0 0 0 0 0 0 0 0 0 0 0 0 0 0 0 0 0 0 0 -0 0 0 0 -0 0 0 0 0 0 0 0 -0 -0 -0 0 0 0 0 -0
0 0 0 0 0 0 0 0 0 0 0 0 0 0 0 0 0 0 0 0 0 0 0 0 0 0 0 -0 0 0 0 0 0 0 0 0 0 0 0 0 0 0 0 -0 0 0 -0
0 0 0 0 0 0 0 0 0 0 0 0 0 0 0 0 0 0 0 0 0 0 0 0 0 0 0 0 0 0 0 0 0 0 0 0 0 0 0 0 0 -0 -0 -0 -0 -0 0
0 0 0 0 0 0 0 0 0 0 0 0 0 0 0 0 0 0 0 0 0 0 0 0 0 -0 0 0 0 0 0 0 0 0 0 0 0 -0 0 -0 0 -0 -0 -0 0 0 0
0 0 0 0 0 0 0 0 0 0 0 0 0 0 0 0 0 0 0 0 0 0 0 0 0 0 0 0 0 0 0 0 0 -0 0 0 0 -0 0 -0 -0 -0 -0 -0 0 0 -0
0 0 0 0 0 0 0 0 0 0 0 0 0 0 0 0 0 0 0 0 0 0 0 0 0 -0 0 0 0 0 0 0 0 0 -0 0 0 0 0 -0 -0 0 0 0 0 0 0
0 0 0 0 0 0 0 0 0 0 0 0 0 0 0 0 0 0 0 0 0 0 0 0 0 0 0 0 0 0 0 0 0 0 0 0 0 0 0 0 -0 0 0 0 0 0 -0
0 0 0 0 0 0 0 0 0 0 0 0 0 0 0 0 0 0 0 0 0 0 0 0 0 0 0 0 0 0 0 0 0 0 0 -0 0 0 0 0 0 0 -0 -0 0 0 0
0 0 0 0 0 0 0 0 0 0 0 0 0 0 0 0 0 0 0 0 0 0 0 0 0 0 0 0 0 0 0 0 0 -0 0 0 0 0 0 0 0 0 0 0 0 0 -0
0 0 0 0 0 0 0 0 0 0 0 0 0 0 0 0 0 0 0 0 0 0 0 0 0 0 0 0 0 0 -0 0 0 -0 0 0 0 0 0 0 0 0 0 0 0 0 -0
0 0 0 0 0 0 0 0 0 0 0 0 0 0 0 0 0 0 0 0 0 0 0 0 0 0 0 0 -0 -0 0 0 0 0 0 0 0 0 0 0 0 0 0 0 0 0 0
0 0 0 0 0 0 0 0 0 0 0 0 0 0 0 0 0 0 0 0 0 0 0 0 0 0 0 0 0 0 0 0 0 0 0 0 0 0 0 0 0 0 0 0 0 0 0
0 0 0 0 0 0 0 0 0 0 0 0 0 0 0 0 0 0 0 0 0 0 0 0 0 0 0 0 0 0 0 0 0 0 0 0 0 0 0 0 0 0 0 0 0 0 0
0 0 0 0 0 0 0 0 0 0 0 0 0 0 0 0 0 0 0 0 0 0 0 0 0 0 0 0 0 0 0 0 0 0 0 0 0 0 0 0 0 0 0 0 0 0 0
0 0 0 0 0 0 0 0 0 0 0 0 0 0 0 0 0 0 0 0 0 0 0 0 0 0 0 0 0 0 0 0 0 0 0 0 0 0 0 0 0 0 0 0 0 0 0
0 0 0 0 0 0 0 0 0 0 0 0 0 0 0 0 0 0 0 0 0 0 0 0 0 0 0 0 0 0 0 0 0 0 0 0 1 0 0 0 -0 -0 0 0 0 0 0
0 0 0 0 0 0 0 0 0 0 0 0 0 0 0 0 0 0 0 0 0 0 0 0 0 0 0 0 0 0 0 0 0 0 0 0 0 0 0 0 0 0 0 0 0 0 0
0 0 0 0 0 0 0 0 0 0 0 0 0 0 0 0 0 0 0 0 0 0 0 0 0 0 0 0 0 0 0 0 0 0 0 0 0 0 0 0 0 0 -0 -0 0 0 0
0 0 0 0 0 0 0 0 0 0 0 0 0 0 0 0 0 0 0 0 0 0 0 0 0 2 1 1 0 0 0 0 0 0 0 0 0 0 0 1 0 -0 -0 0 0 0 0
Wind_Speed_500mb
16 17 17 17 18 19 20 22 22 26 26 29 31 32 35 40 41 39 37 39 39 39 41 35 20 13 6 16 7 18 19 26 30 28 33 33 31 37 17 12 20 13 19 21 25 20 25
16 16 18 19 18 18 20 20 23 23 27 29 31 33 35 37 43 41 38 39 37 37 36 25 16 13 8 30 14 18 22 25 25 29 31 31 19 15 7 13 13 25 21 27 24 26 24
18 17 17 18 19 18 19 20 21 24 24 29 30 32 34 37 42 42 40 39 37 36 31 18 13 14 16 3 12 20 31 28 26 29 29 21 13 19 18 13 14 30 24 26 29 28 23
24 21 18 18 19 18 18 20 22 23 25 26 31 32 33 36 39 41 39 38 36 34 24 15 11 10 7 8 12 26 31 27 27 26 23 20 13 15 16 15 20 30 28 31 30 29 18
27 26 23 20 19 19 20 19 21 23 25 25 29 32 32 34 36 38 36 36 32 25 16 11 8 7 13 14 17 27 33 32 32 26 16 18 19 10 11 23 21 27 24 18 22 31 22
31 29 25 23 22 19 19 20 21 22 24 26 26 30 31 31 33 34 31 25 17 16 8 6 11 13 17 24 21 27 32 28 34 29 23 23 26 20 19 26 30 22 29 46 23 28 21
37 27 28 27 25 24 22 22 22 23 24 26 26 28 29 28 28 28 31 23 11 6 17 28 3 11 16 17 20 29 37 31 34 35 29 39 28 35 39 40 42 16 15 19 9 28 20
29 31 34 31 29 27 25 25 26 25 25 26 28 25 27 24 22 17 23 12 13 14 22 26 24 26 13 17 24 31 42 33 31 34 43 29 39 40 37 38 38 18 32 25 18 15 17
21 27 32 33 31 30 28 28 26 28 25 26 28 27 25 19 13 16 9 8 17 17 16 15 28 34 28 28 26 43 51 48 37 39 40 33 37 43 36 32 38 26 36 27 16 16 21
27 20 20 28 30 27 31 31 28 27 26 26 27 26 23 12 5 12 1 15 22 9 11 27 23 22 30 34 29 39 56 50 29 37 33 32 26 23 23 33 27 38 30 31 30 14 23
24 19 20 20 20 24 32 28 26 23 24 23 24 25 19 20 14 8 10 18 20 5 11 28 22 21 32 45 23 39 57 55 34 34 25 31 28 16 25 36 38 33 28 26 28 24 36
21 20 20 22 23 23 19 22 27 30 26 25 23 23 21 15 18 17 16 22 11 13 10 15 20 26 33 44 23 46 50 55 43 33 30 33 22 28 34 32 33 27 15 29 21 27 33
19 22 23 23 21 23 26 30 30 33 34 29 25 22 25 21 11 14 17 12 13 20 15 19 29 34 39 28 30 36 44 45 36 34 34 35 25 26 31 20 23 30 26 20 21 24 26
19 19 19 21 21 23 27 29 31 28 30 28 27 25 25 22 21 20 12 14 18 17 14 13 8 26 36 39 31 38 42 40 47 39 28 32 33 40 24 36 27 38 32 28 10 26 20
19 18 18 18 18 17 20 24 26 28 27 27 24 19 25 18 21 14 19 20 17 5 11 7 19 22 28 31 30 35 39 41 46 46 39 29 35 45 38 39 37 38 32 41 23 26 20
17 18 17 17 17 19 16 19 23 23 19 21 21 22 26 19 15 15 19 31 18 6 8 17 23 27 32 31 34 36 34 35 37 47 43 16 22 36 36 37 39 26 21 21 20 30 24
13 16 17 17 15 15 17 18 19 19 15 15 15 15 14 17 13 25 22 35 26 5 10 12 11 8 20 32 35 31 33 22 39 38 40 25 17 24 26 30 34 23 30 18 22 8 23
13 13 15 16 16 14 14 15 18 18 13 9 18 15 10 18 24 32 26 29 12 21 14 11 11 23 13 15 22 35 32 27 34 43 46 37 15 16 34 31 22 21 35 31 18 22 12
17 14 14 15 14 14 13 13 14 13 12 15 20 27 12 22 17 23 32 31 17 23 18 9 11 16 14 10 11 29 17 16 17 40 44 31 14 23 19 17 15 23 21 24 15 10 29
18 14 14 14 14 14 12 12 12 12 14 15 14 9 18 27 44 26 28 26 31 28 25 17 18 20 17 21 21 13 29 14 20 40 20 31 27 32 20 32 31 32 33 19 16 16 27
20 16 13 14 13 15 14 12 11 13 14 13 15 13 6 16 28 27 27 21 32 20 27 21 20 27 20 17 25 29 22 23 17 20 18 16 27 26 21 5 4 12 20 19 17 27 18
19 19 15 14 13 15 15 13 12 12 18 19 10 11 18 28 11 35 19 26 26 30 14 26 26 28 13 22 14 8 22 19 29 16 28 25 21 25 14 10 12 15 15 13 17 13 16
18 15 15 13 14 14 15 15 12 11 15 10 15 20 18 17 21 22 26 31 29 20 20 33 24 6 21 8 15 29 29 21 20 25 28 28 13 18 24 14 17 20 15 15 15 12 18
17 17 13 12 13 13 16 15 13 10 12 11 10 12 19 21 22 25 34 32 24 21 25 22 7 16 16 22 31 26 26 22 18 18 23 24 23 20 8 15 16 10 14 10 15 21 12
18 17 16 14 15 14 15 16 14 11 11 16 11 9 12 17 23 27 12 7 24 25 22 22 25 16 20 24 19 9 18 23 25 23 18 21 21 5 8 12 7 7 10 13 20 27 24
22 18 16 15 18 16 16 16 16 12 11 10 17 13 9 16 17 13 17 26 22 24 28 34 23 12 13 18 20 20 20 24 19 19 13 14 11 13 10 7 12 6 22 6 15 23 28
25 23 18 17 15 17 17 17 18 14 11 8 15 13 12 11 33 9 9 17 21 15 12 15 3 16 17 19 21 21 18 16 29 32 27 20 17 16 10 15 4 9 11 9 16 5 15
27 27 25 20 18 17 18 18 18 16 12 7 14 16 15 18 45 18 21 21 15 13 18 12 11 16 15 22 23 19 9 10 12 17 33 20 16 16 19 16 16 23 18 27 4 5 13
26 28 28 25 20 18 18 19 19 19 13 11 14 14 12 19 25 22 27 27 23 15 20 15 10 6 22 9 11 3 9 5 24 17 5 9 6 6 21 9 12 25 15 16 10 15 15
Wind_Direction_500mb
337 346 340 316 299 292 290 291 293 296 295 298 302 303 303 308 314 318 319 319 321 322 322 320 325 323 255 240 107 161 169 173 171 175 189 188 198 229 215 144 182 153 121 123 135 132 110
311 332 340 336 316 300 294 295 297 297 299 300 303 307 307 306 311 314 316 316 319 318 321 313 318 307 263 251 142 173 175 175 177 184 189 191 213 276 274 166 214 134 149 145 153 127 137
295 310 325 333 333 317 301 298 299 301 302 304 305 308 310 310 308 312 313 315 316 314 314 301 307 312 261 329 170 189 180 183 181 185 187 191 212 238 169 150 178 150 153 157 158 156 154
275 285 299 317 329 331 323 309 301 300 303 305 307 308 310 311 310 310 312 314 313 309 302 285 301 298 264 156 171 173 179 180 187 190 205 191 198 239 243 118 154 178 174 186 170 161 150
265 272 283 298 312 326 332 326 315 307 303 305 306 308 309 311 311 311 313 314 312 303 290 275 315 230 224 180 171 176 177 182 177 180 184 188 183 183 161 173 204 214 214 184 162 168 145
265 264 273 282 292 304 319 325 324 318 310 305 307 309 309 312 314 315 317 326 320 312 289 271 244 241 205 205 169 175 176 186 179 180 176 193 192 189 205 202 215 221 226 213 161 168 202
256 254 262 271 278 288 300 309 315 317 313 308 308 307 308 315 318 327 342 335 297 202 237 264 283 258 140 145 157 179 179 170 187 194 203 200 206 206 196 229 252 316 263 290 148 120 195
257 254 256 263 268 275 289 299 300 306 311 311 309 309 308 318 324 335 12 33 32 328 298 263 242 227 206 188 185 180 178 179 200 206 211 188 219 208 207 220 246 260 279 268 80 111 243
263 253 254 256 261 272 280 288 298 295 305 312 313 312 309 321 336 12 353 23 350 320 261 230 219 226 203 194 198 179 186 196 197 212 210 212 217 233 217 218 230 239 246 255 243 146 241
267 264 258 259 260 266 280 277 293 295 298 308 313 314 319 326 17 327 247 345 341 302 264 158 199 209 185 189 214 192 192 199 203 217 213 231 224 234 204 230 223 243 229 257 273 201 269
263 267 271 269 264 273 268 278 291 296 299 305 310 314 324 323 296 330 295 328 329 310 248 153 140 148 188 196 183 199 194 205 221 218 224 221 244 221 238 233 230 244 268 274 237 225 263
260 258 259 252 259 271 270 274 286 290 298 302 309 311 317 334 295 280 301 311 309 234 231 152 155 180 172 204 165 176 191 212 225 224 224 244 192 233 226 240 234 248 230 249 236 238 236
261 259 259 262 262 270 279 278 281 282 287 293 300 304 300 288 200 288 309 297 230 245 126 155 180 168 186 186 196 164 188 201 214 225 219 217 225 237 232 235 219 220 207 211 220 237 253
264 263 264 260 260 269 278 281 277 279 288 291 293 295 293 273 255 269 293 234 250 219 167 96 187 190 194 183 195 188 191 201 215 219 219 217 208 222 180 229 204 205 200 256 236 265 150
265 263 264 269 266 268 265 274 282 278 287 293 289 303 279 260 239 225 230 221 220 267 80 210 195 209 201 200 206 197 203 210 198 220 226 217 237 184 201 221 213 197 234 244 302 289 275
266 266 264 269 271 270 275 274 276 281 286 294 290 288 253 224 219 201 231 246 269 13 336 241 247 208 189 198 203 208 199 211 218 199 226 258 225 181 190 214 233 262 231 239 232 270 286
278 269 265 265 271 277 277 273 278 281 289 286 281 251 178 207 199 215 226 225 228 206 281 279 268 231 269 182 203 216 219 203 209 196 218 231 239 176 179 214 219 209 244 232 285 242 264
267 280 269 265 267 271 282 282 275 272 282 264 261 238 180 186 207 221 227 230 28 271 224 260 278 288 285 242 217 235 210 212 193 215 201 214 242 214 203 203 255 271 237 247 248 259 315
245 260 276 265 264 265 273 282 281 264 244 220 255 252 216 191 223 222 222 240 234 256 235 237 251 245 206 274 254 228 224 236 197 203 198 192 224 236 157 198 207 245 232 263 276 315 281
249 242 258 266 260 259 264 276 279 249 232 226 270 225 192 210 245 292 209 216 228 219 257 257 280 302 255 244 242 243 224 159 219 217 148 203 227 234 221 226 202 209 238 229 241 259 284
253 255 241 258 254 256 256 265 272 246 228 215 243 252 337 202 221 233 259 211 222 211 216 214 247 244 242 255 219 220 230 164 203 151 199 195 233 232 247 307 225 186 213 227 237 259 284
249 247 241 249 250 251 252 261 269 257 229 225 281 295 237 272 254 210 211 234 230 208 221 209 236 219 252 246 312 311 239 206 186 178 215 200 239 231 192 186 183 210 220 241 275 300 278
236 242 232 241 246 244 251 253 267 268 236 239 250 279 284 237 214 232 217 228 217 234 214 257 224 335 256 337 346 306 294 303 316 175 191 192 214 220 205 196 227 233 238 251 272 259 284
226 231 226 229 247 241 246 248 261 270 240 253 254 281 276 248 229 207 231 211 228 200 248 203 191 264 15 324 304 263 255 238 235 228 188 201 214 222 158 180 216 48 355 306 269 277 267
222 228 230 234 246 244 241 243 247 263 261 242 256 224 279 282 254 236 253 233 239 247 242 256 250 265 313 299 254 201 188 204 206 178 195 197 206 161 213 227 342 311 273 240 241 256 232
221 229 232 238 243 240 238 238 237 255 268 259 244 237 261 306 249 326 239 220 240 225 226 226 232 255 276 270 230 215 186 195 178 167 165 184 251 205 158 200 238 254 298 235 260 258 241
224 226 233 233 242 237 235 234 232 242 261 261 248 233 232 284 271 278 266 314 248 304 251 171 156 244 220 245 250 217 223 239 190 178 175 177 189 192 197 251 225 150 222 169 230 339 90
224 224 226 231 232 237 234 230 229 232 255 268 260 230 235 231 261 287 264 294 326 277 271 38 228 206 225 241 248 240 91 314 203 140 168 180 163 236 225 207 220 165 174 221 126 134 146
222 222 224 227 230 235 234 230 227 225 245 263 249 243 275 244 258 267 275 260 265 280 318 303 328 319 23 290 278 48 90 3 228 156 133 208 177 335 346 85 320 157 74 117 135 150 154
Wind_Speed_850mb
16 17 17 17 18 19 20 22 22 26 26 29 31 32 35 40 41 39 37 39 39 39 41 35 20 13 6 16 7 18 19 26 30 28 33 33 31 37 17 12 20 13 19 21 25 20 25
16 16 18 19 18 18 20 20 23 23 27 29 31 33 35 37 43 41 38 39 37 37 36 25 16 13 8 30 14 18 22 25 25 29 31 31 19 15 7 13 13 25 21 27 24 26 24
18 17 17 18 19 18 19 20 21 24 24 29 30 32 34 37 42 42 40 39 37 36 31 18 13 14 16 3 12 20 31 28 26 29 29 21 13 19 18 13 14 30 24 26 29 28 23
24 21 18 18 19 18 18 20 22 23 25 26 31 32 33 36 39 41 39 38 36 34 24 15 11 10 7 8 12 26 31 27 27 26 23 20 13 15 16 15 20 30 28 31 30 29 18
27 26 23 20 19 19 20 19 21 23 25 25 29 32 32 34 36 38 36 36 32 25 16 11 8 7 13 14 17 27 33 32 32 26 16 18 19 10 11 23 21 27 24 18 22 31 22
31 29 25 23 22 19 19 20 21 22 24 26 26 30 31 31 33 34 31 25 17 16 8 6 11 13 17 24 21 27 32 28 34 29 23 23 26 20 19 26 30 22 29 46 23 28 21
37 27 28 27 25 24 22 22 22 23 24 26 26 28 29 28 28 28 31 23 11 6 17 28 3 11 16 17 20 29 37 31 34 35 29 39 28 35 39 40 42 16 15 19 9 28 20
29 31 34 31 29 27 25 25 26 25 25 26 28 25 27 24 22 17 23 12 13 14 22 26 24 26 13 17 24 31 42 33 31 34 43 29 39 40 37 38 38 18 32 25 18 15 17
21 27 32 33 31 30 28 28 26 28 25 26 28 27 25 19 13 16 9 8 17 17 16 15 28 34 28 28 26 43 51 48 37 39 40 33 37 43 36 32 38 26 36 27 16 16 21
27 20 20 28 30 27 31 31 28 27 26 26 27 26 23 12 5 12 1 15 22 9 11 27 23 22 30 34 29 39 56 50 29 37 33 32 26 23 23 33 27 38 30 31 30 14 23
24 19 20 20 20 24 32 28 26 23 24 23 24 25 19 20 14 8 10 18 20 5 11 28 22 21 32 45 23 39 57 55 34 34 25 31 28 16 25 36 38 33 28 26 28 24 36
21 20 20 22 23 23 19 22 27 30 26 25 23 23 21 15 18 17 16 22 11 13 10 15 20 26 33 44 23 46 50 55 43 33 30 33 22 28 34 32 33 27 15 29 21 27 33
19 22 23 23 21 23 26 30 30 33 34 29 25 22 25 21 11 14 17 12 13 20 15 19 29 34 39 28 30 36 44 45 36 34 34 35 25 26 31 20 23 30 26 20 21 24 26
19 19 19 21 21 23 27 29 31 28 30 28 27 25 25 22 21 20 12 14 18 17 14 13 8 26 36 39 31 38 42 40 47 39 28 32 33 40 24 36 27 38 32 28 10 26 20
19 18 18 18 18 17 20 24 26 28 27 27 24 19 25 18 21 14 19 20 17 5 11 7 19 22 28 31 30 35 39 41 46 46 39 29 35 45 38 39 37 38 32 41 23 26 20
17 18 17 17 17 19 16 19 23 23 19 21 21 22 26 19 15 15 19 31 18 6 8 17 23 27 32 31 34 36 34 35 37 47 43 16 22 36 36 37 39 26 21 21 20 30 24
13 16 17 17 15 15 17 18 19 19 15 15 15 15 14 17 13 25 22 35 26 5 10 12 11 8 20 32 35 31 33 22 39 38 40 25 17 24 26 30 34 23 30 18 22 8 23
13 13 15 16 16 14 14 15 18 18 13 9 18 15 10 18 24 32 26 29 12 21 14 11 11 23 13 15 22 35 32 27 34 43 46 37 15 16 34 31 22 21 35 31 18 22 12
17 14 14 15 14 14 13 13 14 13 12 15 20 27 12 22 17 23 32 31 17 23 18 9 11 16 14 10 11 29 17 16 17 40 44 31 14 23 19 17 15 23 21 24 15 10 29
18 14 14 14 14 14 12 12 12 12 14 15 14 9 18 27 44 26 28 26 31 28 25 17 18 20 17 21 21 13 29 14 20 40 20 31 27 32 20 32 31 32 33 19 16 16 27
20 16 13 14 13 15 14 12 11 13 14 13 15 13 6 16 28 27 27 21 32 20 27 21 20 27 20 17 25 29 22 23 17 20 18 16 27 26 21 5 4 12 20 19 17 27 18
19 19 15 14 13 15 15 13 12 12 18 19 10 11 18 28 11 35 19 26 26 30 14 26 26 28 13 22 14 8 22 19 29 16 28 25 21 25 14 10 12 15 15 13 17 13 16
18 15 15 13 14 14 15 15 12 11 15 10 15 20 18 17 21 22 26 31 29 20 20 33 24 6 21 8 15 29 29 21 20 25 28 28 13 18 24 14 17 20 15 15 15 12 18
17 17 13 12 13 13 16 15 13 10 12 11 10 12 19 21 22 25 34 32 24 21 25 22 7 16 16 22 31 26 26 22 18 18 23 24 23 20 8 15 16 10 14 10 15 21 12
18 17 16 14 15 14 15 16 14 11 11 16 11 9 12 17 23 27 12 7 24 25 22 22 25 16 20 24 19 9 18 23 25 23 18 21 21 5 8 12 7 7 10 13 20 27 24
22 18 16 15 18 16 16 16 16 12 11 10 17 13 9 16 17 13 17 26 22 24 28 34 23 12 13 18 20 20 20 24 19 19 13 14 11 13 10 7 12 6 22 6 15 23 28
25 23 18 17 15 17 17 17 18 14 11 8 15 13 12 11 33 9 9 17 21 15 12 15 3 16 17 19 21 21 18 16 29 32 27 20 17 16 10 15 4 9 11 9 16 5 15
27 27 25 20 18 17 18 18 18 16 12 7 14 16 15 18 45 18 21 21 15 13 18 12 11 16 15 22 23 19 9 10 12 17 33 20 16 16 19 16 16 23 18 27 4 5 13
26 28 28 25 20 18 18 19 19 19 13 11 14 14 12 19 25 22 27 27 23 15 20 15 10 6 22 9 11 3 9 5 24 17 5 9 6 6 21 9 12 25 15 16 10 15 15
Wind_Direction_850mb
337 346 340 316 299 292 290 291 293 296 295 298 302 303 303 308 314 318 319 319 321 322 322 320 325 323 255 240 107 161 169 173 171 175 189 188 198 229 215 144 182 153 121 123 135 132 110
311 332 340 336 316 300 294 295 297 297 299 300 303 307 307 306 311 314 316 316 319 318 321 313 318 307 263 251 142 173 175 175 177 184 189 191 213 276 274 166 214 134 149 145 153 127 137
295 310 325 333 333 317 301 298 299 301 302 304 305 308 310 310 308 312 313 315 316 314 314 301 307 312 261 329 170 189 180 183 181 185 187 191 212 238 169 150 178 150 153 157 158 156 154
275 285 299 317 329 331 323 309 301 300 303 305 307 308 310 311 310 310 312 314 313 309 302 285 301 298 264 156 171 173 179 180 187 190 205 191 198 239 243 118 154 178 174 186 170 161 150
265 272 283 298 312 326 332 326 315 307 303 305 306 308 309 311 311 311 313 314 312 303 290 275 315 230 224 180 171 176 177 182 177 180 184 188 183 183 161 173 204 214 214 184 162 168 145
265 264 273 282 292 304 319 325 324 318 310 305 307 309 309 312 314 315 317 326 320 312 289 271 244 241 205 205 169 175 176 186 179 180 176 193 192 189 205 202 215 221 226 213 161 168 202
256 254 262 271 278 288 300 309 315 317 313 308 308 307 308 315 318 327 342 335 297 202 237 264 283 258 140 145 157 179 179 170 187 194 203 200 206 206 196 229 252 316 263 290 148 120 195
257 254 256 263 268 275 289 299 300 306 311 311 309 309 308 318 324 335 12 33 32 328 298 263 242 227 206 188 185 180 178 179 200 206 211 188 219 208 207 220 246 260 279 268 80 111 243
263 253 254 256 261 272 280 288 298 295 305 312 313 312 309 321 336 12 353 23 350 320 261 230 219 226 203 194 198 179 186 196 197 212 210 212 217 233 217 218 230 239 246 255 243 146 241
267 264 258 259 260 266 280 277 293 295 298 308 313 314 319 326 17 327 247 345 341 302 264 158 199 209 185 189 214 192 192 199 203 217 213 231 224 234 204 230 223 243 229 257 273 201 269
263 267 271 269 264 273 268 278 291 296 299 305 310 314 324 323 296 330 295 328 329 310 248 153 140 148 188 196 183 199 194 205 221 218 224 221 244 221 238 233 230 244 268 274 237 225 263
260 258 259 252 259 271 270 274 286 290 298 302 309 311 317 334 295 280 301 311 309 234 231 152 155 180 172 204 165 176 191 212 225 224 224 244 192 233 226 240 234 248 230 249 236 238 236
261 259 259 262 262 270 279 278 281 282 287 293 300 304 300 288 200 288 309 297 230 245 126 155 180 168 186 186 196 164 188 201 214 225 219 217 225 237 232 235 219 220 207 211 220 237 253
264 263 264 260 260 269 278 281 277 279 288 291 293 295 293 273 255 269 293 234 250 219 167 96 187 190 194 183 195 188 191 201 215 219 219 217 208 222 180 229 204 205 200 256 236 265 150
265 263 264 269 266 268 265 274 282 278 287 293 289 303 279 260 239 225 230 221 220 267 80 210 195 209 201 200 206 197 203 210 198 220 226 217 237 184 201 221 213 197 234 244 302 289 275
266 266 264 269 271 270 275 274 276 281 286 294 290 288 253 224 219 201 231 246 269 13 336 241 247 208 189 198 203 208 199 211 218 199 226 258 225 181 190 214 233 262 231 239 232 270 286
278 269 265 265 271 277 277 273 278 281 289 286 281 251 178 207 199 215 226 225 228 206 281 279 268 231 269 182 203 216 219 203 209 196 218 231 239 176 179 214 219 209 244 232 285 242 264
267 280 269 265 267 271 282 282 275 272 282 264 261 238 180 186 207 221 227 230 28 271 224 260 278 288 285 242 217 235 210 212 193 215 201 214 242 214 203 203 255 271 237 247 248 259 315
245 260 276 265 264 265 273 282 281 264 244 220 255 252 216 191 223 222 222 240 234 256 235 237 251 245 206 274 254 228 224 236 197 203 198 192 224 236 157 198 207 245 232 263 276 315 281
249 242 258 266 260 259 264 276 279 249 232 226 270 225 192 210 245 292 209 216 228 219 257 257 280 302 255 244 242 243 224 159 219 217 148 203 227 234 221 226 202 209 238 229 241 259 284
253 255 241 258 254 256 256 265 272 246 228 215 243 252 337 202 221 233 259 211 222 211 216 214 247 244 242 255 219 220 230 164 203 151 199 195 233 232 247 307 225 186 213 227 237 259 284
249 247 241 249 250 251 252 261 269 257 229 225 281 295 237 272 254 210 211 234 230 208 221 209 236 219 252 246 312 311 239 206 186 178 215 200 239 231 192 186 183 210 220 241 275 300 278
236 242 232 241 246 244 251 253 267 268 236 239 250 279 284 237 214 232 217 228 217 234 214 257 224 335 256 337 346 306 294 303 316 175 191 192 214 220 205 196 227 233 238 251 272 259 284
226 231 226 229 247 241 246 248 261 270 240 253 254 281 276 248 229 207 231 211 228 200 248 203 191 264 15 324 304 263 255 238 235 228 188 201 214 222 158 180 216 48 355 306 269 277 267
222 228 230 234 246 244 241 243 247 263 261 242 256 224 279 282 254 236 253 233 239 247 242 256 250 265 313 299 254 201 188 204 206 178 195 197 206 161 213 227 342 311 273 240 241 256 232
221 229 232 238 243 240 238 238 237 255 268 259 244 237 261 306 249 326 239 220 240 225 226 226 232 255 276 270 230 215 186 195 178 167 165 184 251 205 158 200 238 254 298 235 260 258 241
224 226 233 233 242 237 235 234 232 242 261 261 248 233 232 284 271 278 266 314 248 304 251 171 156 244 220 245 250 217 223 239 190 178 175 177 189 192 197 251 225 150 222 169 230 339 90
224 224 226 231 232 237 234 230 229 232 255 268 260 230 235 231 261 287 264 294 326 277 271 38 228 206 225 241 248 240 91 314 203 140 168 180 163 236 225 207 220 165 174 221 126 134 146
222 222 224 227 230 235 234 230 227 225 245 263 249 243 275 244 258 267 275 260 265 280 318 303 328 319 23 290 278 48 90 3 228 156 133 208 177 335 346 85 320 157 74 117 135 150 154